Location: Csohesd
(46.2500°N, 22.6167°E)
Time: 13:11:42
(UTC+00:00)

H-2A R/B - Pass Details

Date: 21 October 2021
Orbit: 732 x 837 km, 98.2° (Epoch: 07 December)

Event Time Altitude Azimuth Distance (km) Brightness Sun altitude
Rises 17:27:48 0° 196° (SSW) 3,329 5.4 -20.6°
Reaches altitude 10° 17:30:26 10° 208° (SSW) 2,415 4.8 -21.1°
Maximum altitude 17:35:01 28° 267° (W) 1,508 4.2 -21.8°
Drops below altitude 10° 17:39:41 10° 326° (NW) 2,459 5.2 -22.6°
Sets 17:42:24 0° 337° (NNW) 3,400 5.8 -23.1°
